LSGC

Details ICAO LSGC
Name Les Eplatures
Region Switzerland
Timezone Europe/Zurich (UTC+2.0)
Plans Departing 24
Arriving 27
Stats Elevation 3,368 ft / 1,027 m (AMSL)
Location 47.084154° 6.793497°
Runways 1
Magnetic Variation 1.954° E
Sunrise 2018-05-25 03:48:15 UTC / 2018-05-25 05:48:15 Local
Sunset 2018-05-25 19:14:09 UTC / 2018-05-25 21:14:09 Local
Advertisement - Login to hide

Runways

ID Width Length Bearing (true) Bearing (mag) Surface Threshold Offset Overrun Length
06 95 ft / 29 m 3,722 ft / 1,135 m 53.96° 52.01° Asphalt 230 ft / 70 m 0 ft / 0 m
24 95 ft / 29 m 3,722 ft / 1,135 m 233.97° 232.02° Asphalt 328 ft / 100 m 0 ft / 0 m

Approach Navaids

Runway Type Ident Frequency Range Bearing (true) Bearing (mag) Slope Elevation
24 Localiser ICF 108.15 MHz 18 nm / 33 km 233.97° 232.01° - 3,376 ft / 1,029 m (AMSL)
24 Glidescope ICF 108.15 MHz 10 nm / 19 km 233.97° 232.01° 3.50° 3,371 ft / 1,027 m (AMSL)

Map

Weather


0- 5 10 15 20 25 30 35+ Temperature / ° C

Clouds and Precipitation
Forecast for 2018-05-25 18:00 UTC. Updated 10 minutes ago

Ground ~20,000 ft ~40,000 ft Winds

METAR

LSGC 251720Z AUTO VRB02KT 9999 NCD 18/12 Q1019

TAF

Not found

Frequencies

Tower 118.12 MHz TWR
Warning: Do not use this data for real-world aviation or navigation. No guarantee of current accuracy is given.